Location: Chippewa Lake
(41.0698°N, 81.9010°W)
Time: 02:09:02
(UTC+00:00)

BREEZE-M DEB (TANK) - Pass Details

Date: 09 May 2021
Orbit: 276 x 16788 km, 49.5° (Epoch: 23 June)

Event Time Altitude Azimuth Distance (km) Brightness Sun altitude
Rises 02:43:01 0° 301° (WNW) 2,175 6.7 -20.6°
Reaches altitude 10° 02:45:38 10° 337° (NNW) 1,107 4.9 -21.0°
Maximum altitude 02:46:42 13° 10° (N) 980 4.1 -21.1°
Enters shadow 02:46:54 13° 17° (NNE) 994 4.0 -21.1°
